Regional Weather Roundup
Issued by NWS Jackson, KY

Home | Current Version | Previous Version | Text Only | Print | Product List | Glossary Off
Versions: 1 2 3 4 5 6 7 8 9 10 11 12 13 14 15 16 17 18 19 20 21 22 23 24 25 26 27 28 29 30 31 32 33 34 35 36 37 38 39 40 41 42 43 44 45 46 47 48 49 50

000
ASUS43 KJKL 301711
RWRJKL

EAST KENTUCKY HOURLY WEATHER ROUNDUP
NATIONAL WEATHER SERVICE JACKSON KY
100 PM EDT TUE SEP 30 2014

NOTE: "FAIR" INDICATES FEW OR NO CLOUDS BELOW 12,000 FEET WITH
NO SIGNIFICANT WEATHER AND/OR OBSTRUCTIONS TO VISIBILITY.

* THESE REPORTS ARE NOT UNDER NWS QUALITY CONTROL AND MAY NOT
  REPORT WEATHER SUCH AS PRECIPITATION AND FOG.

KYZ079-080-083-085-087-088-110-112-115-119-120-301800
...EASTERN KENTUCKY...

CITY           SKY/WX    TMP DP  RH WIND       PRES   REMARKS
JACKSON        SUNNY     76  57  51 VRB5      29.97F
LONDON         SUNNY     79  52  38 VRB5      29.98F
SOMERSET*      SUNNY     77  50  38 W5        29.98F
MONTICELLO*    SUNNY     82  53  36 VRB3      29.99F
WILLIAMSBURG*  SUNNY     77  59  53 CALM      29.98F
MIDDLESBORO*   MOSUNNY   75  64  67 S3        29.98F
HARLAN APT*    PTSUNNY   77  54  44 NW6       29.98F
BLACK MTN*       N/A     66  55  68 NW5         N/A
PIKEVILLE APT* SUNNY     73  57  56 S3        29.97
BIG SANDY*     SUNNY     76  59  55 SW3       29.96S
MOREHEAD APT*  SUNNY     77  54  44 VRB5G12   29.96F
$$

KYZ035-036-041-042-044-050-067-078-099-301800
...CENTRAL KENTUCKY...

CITY           SKY/WX    TMP DP  RH WIND       PRES   REMARKS
MT STERLING*   SUNNY     79  54  41 NW3       29.97S
FLEMING/MASON* SUNNY     79  52  38 W8        29.95S
DANVILLE*      SUNNY     81  52  36 NW6       29.98S
RICHMOND*      SUNNY     79  46  31 W6        29.96S
LEXINGTON      SUNNY     81  50  33 VRB6      29.96F
FRANKFORT      SUNNY     80  52  37 VRB5      29.94F
$$

KYZ091>093-OHZ055-061-077-WVZ005-015-034-035-042-301800
...SOUTHERN OHIO/WEST VIRGINIA...

CITY           SKY/WX    TMP DP  RH WIND       PRES   REMARKS
COVINGTON      MOSUNNY   77  56  48 NW9       29.94S
COLUMBUS       PTSUNNY   64  59  83 NW8       29.93S HAZE
DAYTON         CLOUDY    62  58  86 NW8       29.97R FOG
WILMINGTON     PTSUNNY   75  57  53 NW7       29.93S
HUNTINGTON     SUNNY     78  55  44 W6        29.92F
CHARLESTON     MOSUNNY   78  56  46 NW3       29.93S
PINEVILLE*     SUNNY     76  61  59 MISG      30.02F
BECKLEY        PTSUNNY   73  53  49 W8        29.99F
BLUEFIELD      PTSUNNY   71  53  52 NW8       30.02S
$$

VAZ002-007-008-TNZ017-027-036-066-071-301800
...SOUTHWEST VIRGINIA/EAST TENNESSEE...

CITY           SKY/WX    TMP DP  RH WIND       PRES   REMARKS
WISE*          SUNNY     73  50  43 NW8       30.03F
JONESVILLE*    SUNNY     75  61  60 CALM      30.00F
ABINGDON*      PTSUNNY   73  60  64 CALM      30.00F
BRISTOL        MOSUNNY   76  59  55 VRB5      29.98F
KNOXVILLE      MOSUNNY   77  64  64 VRB6      29.96F
OAK RIDGE      CLOUDY    70  63  78 W3        29.99F
CROSSVILLE     SUNNY     77  55  46 NW6       30.00F
NASHVILLE      MOSUNNY   85  54  34 NW7       29.96F
$$

...KEY TO REMARKS...
VSB - VISIBILITY IN MILES
WCI - WIND CHILL INDEX
HX  - HEAT INDEX

$$



USA.gov is the U.S. government's official web portal to all federal, state and local government web resources and services.